Dewpoint
71 69 70 67 68 68 73 69 57 61 59 54 54 56 54 58 56 55 55 58 54 60 59 56 55 56 58 57 58 58 59 56 53 48 49 64 68 69 71 72 71 71 72 73 74 75 75 76 76 75 75 76 76 76 76 76 75 75 75 75 75 76 76 76 76 75 76 75 76 76 75 76 75 76 75 76 76 76 76 76 75 75 75 75 75 75 75 75 75 75 75 76 76 76 76 75 75
68 68 67 64 67 72 66 68 59 58 57 55 57 57 56 59 54 53 54 57 56 53 53 55 57 59 59 57 57 58 59 61 61 62 65 67 68 70 71 71 70 70 72 73 75 75 75 76 76 76 76 76 76 75 75 75 75 75 75 76 76 76 76 76 76 76 75 75 75 76 75 76 76 76 76 76 76 76 76 75 75 75 75 75 75 75 76 75 75 76 76 75 75 75 75 75 75
63 65 66 68 76 72 69 67 55 55 54 52 54 57 58 54 53 54 57 57 54 52 53 55 57 58 56 56 56 57 57 63 63 64 65 68 68 69 70 70 70 70 72 73 74 74 75 76 76 75 76 75 75 75 74 75 75 75 75 75 76 76 76 76 75 75 76 75 75 76 75 76 76 76 76 76 76 76 75 75 75 75 75 75 75 76 75 76 76 76 76 76 75 75 75 75 75
66 68 72 70 67 72 62 61 58 55 52 54 51 58 58 56 52 57 58 54 53 52 52 53 55 57 55 54 56 59 59 62 64 65 66 67 67 68 69 70 69 69 71 72 73 75 75 75 75 75 75 75 74 75 75 75 75 75 75 75 76 76 76 76 76 75 76 76 76 76 76 76 76 76 76 76 76 76 76 76 76 75 75 75 75 75 76 76 76 75 76 76 76 75 75 75 75
65 73 73 71 68 63 62 59 58 58 52 55 53 60 57 53 55 53 56 55 53 55 52 53 55 57 57 54 55 57 59 63 64 65 65 66 68 69 69 67 68 69 70 73 74 74 74 76 75 75 75 74 74 74 74 74 74 75 75 75 76 76 76 76 75 75 76 76 75 76 76 76 76 76 75 76 76 76 76 76 76 76 76 75 74 75 76 76 76 75 76 76 76 76 76 75 76
64 73 75 74 66 70 65 58 57 57 59 61 56 56 57 54 55 56 53 55 58 54 53 54 51 52 53 54 57 59 61 60 63 64 64 65 68 68 68 69 69 69 72 73 73 74 74 75 75 75 74 74 74 74 74 73 74 75 75 75 76 76 75 76 75 75 75 76 75 75 76 76 76 75 75 76 75 75 75 75 75 75 75 74 74 76 76 76 76 76 75 76 76 75 76 75 76
70 70 72 71 68 68 58 58 57 56 60 61 58 56 54 55 56 54 55 55 58 53 51 51 51 52 52 54 57 59 61 62 62 63 64 65 66 67 68 69 69 71 72 73 73 74 74 75 74 74 74 74 74 74 74 74 74 74 74 74 75 75 75 75 75 75 76 75 75 76 75 75 75 75 75 75 75 75 75 75 75 76 75 74 74 75 76 76 76 76 76 76 75 76 76 76 76
74 68 67 64 61 62 58 58 58 59 60 61 62 62 55 60 56 57 53 53 53 51 49 51 52 52 53 57 57 60 61 62 63 65 65 66 67 67 68 69 70 72 73 73 74 74 76 75 75 74 75 75 75 75 75 75 75 75 75 75 75 75 75 75 75 75 75 75 74 74 75 75 74 75 75 75 74 75 75 75 75 75 75 74 74 75 76 76 76 75 75 75 75 75 76 76 76
72 70 70 64 59 61 58 58 59 64 62 61 61 64 63 59 59 57 55 52 52 51 51 51 52 52 54 56 57 59 61 63 64 67 65 66 67 68 69 70 71 72 74 74 74 74 74 74 74 74 75 75 75 76 76 75 75 75 75 74 74 74 74 74 75 75 75 75 75 75 75 75 75 75 75 75 74 75 75 75 75 75 75 75 75 75 76 76 76 75 76 76 76 76 76 76 76
70 69 62 62 62 56 57 58 58 61 60 60 61 63 62 61 58 61 54 50 52 50 50 52 54 55 56 56 57 59 60 63 65 66 66 66 67 68 69 70 71 72 73 73 73 73 73 75 74 74 75 75 75 75 75 75 75 74 74 74 74 75 75 75 75 75 75 75 75 75 75 75 74 75 75 75 75 75 75 75 75 75 75 75 75 75 75 75 75 75 76 76 76 76 76 75 75
64 69 69 61 57 56 56 58 59 61 62 63 62 63 63 65 62 58 57 50 50 52 54 55 55 55 56 57 58 60 62 62 63 65 67 67 67 68 69 71 71 72 72 73 73 73 73 73 75 75 75 75 75 75 75 74 74 75 74 75 75 75 75 75 75 75 74 75 75 75 75 74 74 75 75 74 75 75 75 75 75 75 75 75 75 74 75 76 75 75 76 76 76 76 76 76 76
63 63 64 58 57 57 58 58 59 62 62 60 61 63 60 61 62 58 54 51 53 53 53 54 55 57 56 56 58 61 61 62 63 65 67 68 68 69 69 70 71 72 72 73 72 73 73 74 74 75 75 75 75 75 75 75 75 75 75 75 75 75 75 75 75 75 75 76 75 74 74 74 75 75 74 75 74 75 75 75 75 75 75 74 75 75 75 75 75 75 75 75 76 76 75 75 75
64 64 60 58 58 58 60 59 59 60 59 60 62 63 64 63 62 62 57 52 52 52 53 55 56 57 55 56 59 59 61 62 64 65 66 67 67 68 69 70 71 72 72 72 72 73 73 74 74 74 74 75 75 75 75 75 75 75 75 75 75 75 75 75 75 75 75 75 76 75 76 75 75 74 74 74 74 74 75 75 75 75 74 74 74 75 75 76 76 75 76 75 75 75 75 75 75
63 65 62 57 61 60 60 59 60 58 58 60 62 64 66 62 63 59 62 51 51 52 55 56 55 56 56 57 58 59 62 61 65 65 65 66 67 69 69 70 70 71 71 72 72 73 73 73 73 74 74 74 74 74 75 74 74 75 75 75 75 75 75 75 75 75 75 76 75 75 75 75 75 74 74 74 74 74 74 75 75 75 74 74 75 75 75 76 76 75 75 75 75 75 74 74 74
64 67 63 59 58 59 61 58 58 58 57 61 62 64 64 63 63 62 63 52 53 54 55 55 55 55 54 55 56 58 59 59 64 65 65 66 67 68 69 70 70 71 71 72 72 72 72 73 73 74 74 74 74 74 74 73 74 75 75 75 75 75 75 74 74 75 74 75 75 75 75 75 75 75 75 74 74 74 75 75 74 75 74 74 75 75 76 76 76 75 75 75 75 75 74 73 73
67 65 63 57 56 58 60 60 60 58 59 61 61 64 62 63 66 60 61 59 53 53 54 53 55 54 55 56 57 59 59 59 60 65 65 65 66 67 69 70 71 72 72 72 72 72 73 73 73 74 74 74 74 74 74 74 74 75 75 75 75 75 75 75 75 76 74 75 75 74 76 74 74 74 75 73 75 75 75 75 75 75 75 75 75 75 75 75 76 76 76 76 75 74 74 74 74
68 65 59 59 56 58 60 61 60 57 59 60 63 63 61 62 66 62 65 67 49 51 52 53 52 55 55 57 59 59 59 60 61 64 65 65 66 66 67 69 69 70 72 74 73 74 73 73 73 74 74 74 73 73 73 74 75 75 74 75 75 74 75 74 75 75 76 75 76 74 74 74 74 74 74 74 75 75 75 75 75 75 75 74 74 75 76 76 76 76 76 76 76 75 74 74 74
66 60 58 57 60 59 61 60 62 61 61 61 62 64 62 58 59 61 61 59 54 51 50 51 52 53 56 58 58 59 59 59 59 60 62 64 65 65 66 68 68 69 71 73 73 73 73 73 73 73 74 74 73 74 73 74 74 75 74 74 74 74 74 74 74 73 74 74 75 75 74 74 73 73 74 76 75 75 74 75 75 75 75 75 75 75 75 75 76 76 76 75 76 76 75 74 75
63 61 60 57 60 64 64 63 63 62 60 62 64 66 64 59 63 63 59 53 55 50 49 50 53 55 57 57 58 58 59 59 59 59 59 60 62 64 65 67 68 69 70 72 73 73 73 73 74 73 73 73 73 73 73 74 74 74 74 74 75 75 75 74 74 74 74 74 74 74 75 74 74 74 74 75 76 76 74 75 75 75 75 74 75 75 75 75 75 75 75 75 75 76 76 75 74
67 61 58 60 63 64 65 66 64 64 63 63 62 64 63 62 64 57 59 54 53 49 47 52 54 55 56 57 58 58 58 59 59 59 59 59 60 62 64 66 68 69 70 71 72 73 73 73 73 73 73 73 73 74 74 74 74 73 73 74 75 74 74 74 74 74 74 74 74 74 74 75 74 73 75 75 76 74 74 75 75 75 74 74 74 75 75 76 76 76 75 75 77 78 76 75 75
65 62 61 63 65 63 65 65 66 66 65 63 63 63 62 63 64 63 58 53 52 48 52 53 54 55 55 57 58 58 58 59 59 59 59 60 60 60 63 66 67 68 69 70 72 72 73 72 72 73 73 74 74 74 73 74 74 74 73 73 73 74 74 73 73 74 74 74 74 73 74 75 74 74 73 74 73 73 73 73 73 73 74 74 75 74 74 76 76 75 76 77 76 76 75 75 75
63 62 62 64 67 64 65 66 67 66 65 64 64 62 62 61 62 63 58 55 50 50 53 54 54 55 56 57 57 58 58 58 58 58 59 59 59 60 64 66 68 68 70 69 70 71 72 72 72 72 73 74 74 73 73 74 74 74 73 73 73 73 73 73 73 73 74 74 74 74 75 74 74 74 73 73 73 73 73 73 73 73 73 74 76 74 74 74 74 75 75 75 75 75 75 74 73
60 63 62 65 66 64 68 66 66 66 64 62 61 62 64 60 60 59 63 59 54 53 53 54 55 56 56 57 57 57 57 58 57 57 58 59 59 62 65 66 68 68 69 69 70 71 72 71 71 72 72 73 73 73 74 74 74 74 74 74 73 74 73 73 73 73 74 74 74 75 74 74 74 74 74 74 74 74 73 73 73 73 73 74 74 74 74 74 74 75 75 75 75 75 74 73 72
63 60 64 65 66 65 68 67 68 66 65 64 64 63 61 59 58 61 60 59 52 53 54 54 55 55 56 57 57 57 57 57 56 57 57 57 59 63 64 66 67 69 69 69 71 72 72 71 71 71 71 71 73 74 73 74 73 73 74 75 74 74 74 74 73 73 74 75 74 74 74 73 73 73 73 73 74 74 74 73 73 73 73 74 75 75 72 73 76 75 75 74 73 74 73 69 67
62 62 63 65 66 66 67 68 68 67 68 68 66 63 61 61 59 59 57 52 52 53 54 54 54 55 56 56 56 57 57 56 56 56 56 57 59 63 63 65 67 68 69 70 71 71 70 71 71 71 71 71 74 75 73 73 73 73 74 74 72 75 72 73 73 74 74 75 75 76 74 73 73 73 73 73 73 73 73 72 73 73 73 73 74 75 75 74 73 73 74 74 73 72 70 66 68
63 63 65 65 65 66 67 67 68 68 67 68 66 63 61 62 61 58 53 50 52 52 53 53 54 54 55 55 55 56 56 55 55 55 55 56 58 60 63 65 67 67 68 68 69 70 70 70 70 71 72 73 73 73 72 72 73 72 73 72 72 75 73 74 73 74 74 74 75 75 76 74 73 73 73 74 74 75 73 73 73 72 72 73 74 74 74 76 75 74 74 75 74 72 70 66 69
62 64 64 65 65 65 67 66 67 67 67 68 63 59 60 59 59 52 51 51 52 51 52 52 52 53 54 54 55 55 54 54 54 54 56 56 57 59 61 65 67 67 68 68 69 69 70 70 71 73 73 73 73 73 72 71 72 72 72 71 73 74 74 74 74 75 74 73 74 76 76 75 73 73 74 75 74 75 75 76 75 76 75 74 74 74 74 74 74 75 75 74 73 72 72 68 68
64 64 63 65 65 65 67 67 66 68 67 68 65 62 61 60 58 53 50 51 51 50 51 51 51 52 53 53 53 54 53 53 53 54 54 55 58 59 60 62 65 67 67 68 68 69 70 71 73 72 73 73 72 72 72 72 71 71 71 72 72 73 74 74 74 74 74 74 75 74 74 74 76 74 74 74 74 74 74 74 75 74 73 74 73 73 73 73 77 75 75 76 76 74 71 70 72
62 63 61 63 63 64 65 65 65 68 67 68 67 60 58 56 57 56 51 51 50 50 50 50 50 51 52 52 52 54 53 53 52 52 53 56 57 58 61 63 65 67 67 67 68 69 68 69 70 72 73 73 71 70 71 72 71 70 71 71 72 73 73 72 72 72 73 74 74 73 73 73 75 75 75 74 75 75 75 74 73 74 73 74 76 77 77 77 75 74 73 75 73 72 69 67 69
64 62 61 61 62 62 64 66 66 66 66 68 67 52 54 56 59 56 54 50 50 49 49 49 50 50 50 51 52 52 53 53 52 53 53 55 56 59 61 64 66 66 67 67 67 67 68 69 70 70 70 71 71 70 71 71 71 70 71 70 73 72 71 71 72 73 73 73 73 73 73 73 75 75 74 74 74 73 74 73 74 72 75 75 77 77 76 76 77 76 73 73 76 73 69 67 67
60 61 61 58 58 58 63 63 64 62 66 67 67 52 53 59 58 54 51 50 49 49 49 49 50 50 50 51 52 52 53 53 53 53 53 55 57 59 62 64 65 66 67 67 67 67 69 69 70 69 71 70 71 71 71 70 70 70 70 70 71 71 70 70 71 72 73 73 73 73 73 74 74 74 74 73 73 74 72 73 73 74 74 75 75 77 76 75 77 74 75 72 72 71 70 69 69
62 57 56 59 57 59 61 64 64 62 64 67 64 52 53 57 60 57 53 50 49 49 48 48 49 49 50 51 51 51 52 52 52 52 52 55 57 61 62 62 64 65 66 66 67 67 68 68 69 69 70 70 70 70 69 69 69 69 69 72 70 71 70 70 70 70 72 73 73 74 74 75 75 74 74 74 72 73 72 73 73 75 76 78 76 78 78 76 74 74 74 74 72 72 73 68 68
60 54 54 54 58 58 59 62 64 64 62 64 63 57 57 56 57 59 51 51 48 48 48 48 49 49 49 51 51 52 52 52 52 52 52 55 57 61 62 63 64 65 65 66 66 67 67 67 68 68 69 69 69 70 69 71 71 69 70 71 70 69 68 68 69 69 71 72 73 74 74 76 75 75 75 76 75 73 74 75 74 75 78 77 78 77 76 76 75 73 76 77 75 72 70 68 67
55 56 53 56 53 58 57 62 64 63 63 61 62 59 57 60 56 58 52 49 48 48 47 48 48 48 50 50 51 51 51 52 52 52 53 56 58 60 62 65 64 64 65 65 66 66 67 67 68 68 68 69 70 71 71 71 70 70 70 70 71 67 66 67 68 68 69 72 73 74 75 76 76 76 75 76 77 75 73 74 74 76 77 77 77 76 75 75 75 75 76 76 77 74 72 71 70
53 54 53 54 56 57 57 58 61 63 62 60 60 61 61 59 59 57 54 55 50 49 48 48 48 49 50 50 50 51 51 51 52 52 54 57 59 60 61 63 64 64 64 65 66 66 66 67 68 70 69 70 71 72 72 70 70 72 70 70 72 74 66 66 67 68 70 71 72 74 75 75 77 76 76 77 77 75 74 75 74 76 77 77 77 76 77 77 77 76 75 76 76 75 74 73 72
54 55 55 54 55 56 58 60 63 62 61 62 60 59 60 59 58 57 52 53 50 50 49 49 49 49 50 50 50 50 51 50 53 52 56 58 59 60 61 63 64 64 65 66 67 67 68 68 68 69 70 71 72 73 72 71 71 69 68 70 70 71 71 70 69 68 69 71 73 74 75 76 78 77 78 78 77 79 74 75 75 77 76 77 77 75 75 75 76 76 76 76 75 75 74 73 70
56 57 55 55 55 57 59 61 63 64 62 61 61 61 61 59 57 57 51 52 52 51 51 50 50 50 50 50 50 51 52 50 53 53 56 58 59 60 62 63 63 65 66 67 67 68 67 68 69 69 70 71 72 71 70 70 69 68 69 69 69 70 70 70 69 69 70 72 72 74 76 76 77 78 77 76 77 79 75 75 76 76 77 77 76 75 76 76 77 77 78 77 77 75 74 72 69
54 55 55 54 55 56 59 60 62 64 61 60 63 61 60 60 61 61 52 51 51 50 51 51 50 50 50 51 50 51 53 53 53 55 56 58 59 61 62 64 66 65 66 66 67 68 68 68 69 69 70 71 71 71 71 71 70 70 69 69 69 69 70 69 69 69 70 72 74 75 76 76 77 77 77 76 77 77 76 76 77 77 77 76 75 77 76 79 76 76 76 76 77 75 74 71 68
52 52 54 55 57 58 59 60 62 63 62 58 61 60 60 61 64 63 62 57 51 53 52 52 51 50 52 50 50 52 53 53 54 55 56 57 59 61 63 64 64 65 66 66 67 68 68 69 70 70 70 71 71 72 72 70 71 70 69 69 68 69 69 70 70 72 72 74 75 75 76 76 76 76 76 78 77 77 77 76 76 77 76 78 78 78 78 75 76 77 76 76 74 74 73 72 71
50 53 53 53 57 56 53 58 60 61 61 58 59 59 60 63 65 62 62 62 63 62 63 60 54 51 53 50 51 52 53 53 54 55 55 57 58 61 64 65 65 65 67 67 67 68 68 71 71 70 71 72 72 74 74 73 75 75 73 68 72 69 70 73 71 72 72 73 73 76 76 76 76 76 75 76 76 76 77 77 77 77 77 78 78 77 78 78 76 76 76 76 76 73 72 69 72
46 52 53 55 56 56 56 56 59 61 62 61 59 57 57 60 60 61 64 62 64 63 61 60 56 55 56 52 54 53 54 53 54 55 55 57 58 61 64 65 65 66 67 67 68 68 70 71 71 72 72 73 73 75 74 75 75 74 73 73 73 72 73 72 71 71 72 73 73 75 75 76 76 74 75 75 77 77 77 77 78 75 76 78 79 77 76 76 76 76 76 77 73 73 73 72 70
43 49 51 55 56 57 58 58 57 56 55 60 57 50 51 57 59 61 64 63 61 62 61 60 55 56 55 52 54 54 54 54 55 55 55 57 58 61 64 65 65 67 67 68 68 69 71 71 72 73 73 74 73 74 74 75 74 72 72 71 70 70 70 70 69 69 70 72 72 74 74 75 75 74 74 75 76 77 77 77 77 76 77 77 76 75 76 76 77 76 76 75 75 74 74 72 70
40 44 53 56 56 58 58 57 56 52 50 57 60 50 48 56 57 59 63 62 62 61 61 59 59 58 55 54 54 54 53 55 55 55 56 57 58 61 64 64 64 66 67 68 68 70 71 72 73 73 74 73 74 75 74 75 74 73 73 71 70 70 70 70 71 70 70 71 72 72 73 74 75 73 74 74 75 77 77 77 78 76 76 77 79 76 76 74 74 74 77 76 76 76 75 72 71
33 48 53 55 56 57 58 57 57 55 58 59 59 57 50 50 55 60 63 61 60 60 58 59 60 60 55 55 54 54 54 55 55 56 56 57 59 61 63 63 64 66 67 67 68 70 71 72 73 74 74 75 75 75 75 74 74 73 73 72 72 71 70 71 71 70 71 72 71 72 72 73 74 73 74 74 76 76 77 76 77 77 78 76 79 78 76 76 76 75 77 77 77 78 76 73 71
53 53 53 54 57 57 57 56 56 57 56 51 55 58 51 50 56 62 62 58 59 59 58 57 58 58 56 55 55 55 55 56 55 56 56 58 59 60 61 62 64 67 67 67 68 70 72 72 73 74 74 74 75 75 75 76 75 73 72 71 71 71 71 72 72 72 71 74 70 71 72 73 74 75 74 75 74 76 77 76 76 77 76 77 78 76 76 75 74 76 77 76 74 74 76 76 74
52 55 56 57 58 57 56 55 55 54 52 48 52 56 50 49 56 58 60 59 58 58 58 57 57 57 57 54 56 57 56 56 56 56 57 58 59 60 60 62 62 65 67 68 69 70 71 72 73 74 74 74 74 76 76 75 75 76 75 73 71 74 72 73 73 72 72 75 71 72 73 73 74 74 74 74 75 74 76 76 75 76 75 77 77 75 75 74 75 76 77 77 76 76 75 75 75
54 55 55 54 54 54 56 56 55 53 48 50 54 55 54 47 54 56 55 56 59 58 59 59 59 58 56 55 55 56 57 57 57 57 58 59 60 61 60 61 61 63 66 67 69 70 71 72 73 73 74 74 75 75 75 73 75 76 73 74 72 72 71 72 73 73 75 73 71 73 73 73 73 74 74 74 75 74 75 76 74 74 74 77 77 76 74 75 73 75 76 77 76 75 74 75 73
52 51 51 51 52 52 53 53 54 47 45 52 55 54 54 47 51 57 59 62 60 58 57 58 58 57 55 54 55 55 57 56 57 56 59 60 60 61 60 60 60 64 66 67 68 69 70 71 73 73 73 73 74 75 74 73 75 75 74 75 72 73 72 72 72 73 74 73 73 73 74 73 74 73 74 73 73 73 75 74 75 74 75 75 76 77 76 76 76 76 77 77 78 77 77 77 73
49 50 49 47 46 47 45 48 46 46 45 52 56 55 52 50 56 60 60 61 62 61 59 57 57 57 56 54 55 56 58 57 57 57 60 60 61 61 60 60 62 65 67 68 68 69 69 70 72 72 72 73 73 75 74 74 74 74 76 74 73 74 73 73 73 73 74 74 74 74 74 74 74 72 75 72 73 72 74 73 73 75 75 75 76 75 76 78 77 77 77 77 77 75 76 76 76
47 45 46 45 42 41 38 44 48 48 50 54 55 56 51 56 59 59 59 61 63 63 59 58 57 57 56 55 54 57 58 58 57 58 59 60 61 61 60 61 62 63 67 68 68 69 69 69 71 72 72 73 73 74 74 74 75 75 76 75 75 75 74 74 74 74 73 73 75 74 73 74 75 72 72 73 72 72 74 74 76 76 75 76 77 76 77 77 78 77 77 77 75 76 77 76 74
43 44 42 44 43 42 40 43 41 44 47 51 54 51 49 51 55 62 60 59 63 64 60 60 60 60 65 56 55 57 58 57 59 57 59 59 60 60 60 61 61 62 65 68 68 69 70 69 71 72 73 73 73 73 74 74 74 76 76 76 76 75 74 74 75 74 74 74 75 74 73 74 75 74 72 73 74 73 73 75 75 76 76 76 77 77 78 77 78 78 78 77 76 77 76 76 75
23 28 42 42 43 46 43 48 48 46 48 48 50 51 55 56 61 62 67 61 64 66 65 65 63 64 63 60 57 56 58 58 59 58 58 58 59 60 59 61 61 62 64 66 68 69 69 70 71 72 73 73 73 74 73 73 73 75 75 76 76 76 76 74 75 76 74 74 73 73 74 74 74 74 75 74 75 74 73 74 75 76 76 77 77 77 76 77 77 77 77 77 75 76 76 76 76
24 25 32 41 45 42 43 46 46 47 48 47 52 54 56 62 63 61 63 64 63 64 65 64 62 62 62 60 59 56 58 57 60 58 58 59 59 59 60 60 61 62 63 65 68 69 69 71 71 72 73 73 73 74 73 73 74 75 75 76 75 76 75 75 74 75 73 74 73 73 74 74 74 74 75 75 75 75 75 74 74 75 75 76 76 76 76 76 76 76 77 76 76 77 78 77 77
25 24 27 40 43 42 42 41 45 45 43 47 51 49 52 52 49 61 61 62 63 62 64 63 62 60 61 62 61 57 56 57 60 59 59 60 60 60 61 61 62 62 63 67 68 69 70 71 71 72 72 72 72 73 73 73 74 74 75 75 74 74 74 73 73 72 73 74 74 74 74 74 74 73 74 72 75 74 75 78 73 75 75 75 75 75 76 77 76 76 76 77 77 78 77 77 77
20 26 30 38 37 35 43 41 38 40 42 44 48 49 53 53 53 58 58 60 61 62 63 63 63 63 62 62 61 61 56 57 60 58 59 59 60 59 61 60 62 63 64 67 68 69 70 70 71 71 72 71 72 72 72 73 74 73 74 74 74 73 73 72 72 73 73 73 73 74 73 73 73 73 73 74 74 74 76 76 75 76 75 75 75 74 75 76 77 76 76 76 76 77 76 76 76
15 20 17 33 32 38 36 36 41 41 42 43 43 48 47 52 54 57 58 60 62 63 63 63 62 62 62 62 62 62 58 57 59 58 60 59 59 59 61 60 62 63 65 67 67 69 70 70 71 71 72 71 71 71 72 72 72 72 72 73 74 74 73 72 73 72 72 72 72 73 72 72 73 73 73 75 73 74 75 74 75 74 74 74 75 75 74 76 77 76 75 76 76 76 76 75 75
12 12 16 22 33 34 37 40 36 38 40 41 41 42 46 51 56 56 57 59 61 61 62 63 63 62 63 64 64 62 61 56 57 58 59 58 59 58 60 61 63 63 66 66 67 69 69 70 71 70 71 71 70 70 71 71 71 71 72 72 73 73 73 73 72 72 71 71 71 73 72 72 72 72 71 71 73 73 74 73 74 74 73 73 74 74 74 75 76 75 75 76 76 76 75 75 76
8 11 15 18 24 29 30 34 34 32 35 39 42 41 47 53 56 56 57 58 60 60 60 62 63 62 63 65 66 63 63 59 56 57 58 57 58 57 60 63 64 62 65 64 66 68 68 69 70 70 71 71 70 69 70 71 71 70 70 71 71 72 72 72 71 71 72 71 71 72 72 71 71 71 72 71 72 73 74 73 73 73 73 72 74 74 74 76 74 76 75 74 76 76 76 76 76